FLOCK 3P-26

Last updated on Wed Feb 14 2018 16:20:19 GMT+0000 (Coordinated Universal Time)

1 41961U 17008P 18044.87002244 .00001352 00000-0 58886-4 0 9991 2 41961 97.4654 110.3232 0010223 69.1279 291.1051 15.23925529 55161
UTC large
Height (km)
Speed (km/s)
/
Latitude / Longitude
Inclination (degrees)
Orbital Period (minutes)
Azimuth
Elevation
Range (km)
Doppler Factor

Next 0 passes for location: London (51.5072 / 0.1276)

Sorry there are no passes over London.